NSS-9

Last updated on Tue Sep 22 2026 00:03:11 GMT+0000 (Coordinated Universal Time)

1 33749U 09008A 26264.52723277 .00000069 00000+0 00000+0 0 9991 2 33749 1.5029 81.5169 0002157 87.6620 204.1271 1.00273960 64486
UTC large
Height (km)
Speed (km/s)
/
Latitude / Longitude
Inclination (degrees)
Orbital Period (minutes)
Azimuth
Elevation
Range (km)
Doppler Factor

Next 0 passes for location: London (51.5072 / 0.1276)

No passes found over London.
NSS-9